• In Austria
  • List of Countries
  • For 7 days
  • Water Temperature
  • Satellite Maps
  • Weather Map
  • News
  • Weather Widgets
  • user-avatar
    Login

    Hourly Weather Parakou

    Today, 19 October, Friday

    Time Temperature Precipitation Wind Pressure Humidity
    00:00 +26°C° 0 mm 2 mps 727 mmHg 85%
    01:00 +25°C° 0 mm 1 mps 726 mmHg 88%
    02:00 +25°C° 0 mm 1 mps 726 mmHg 90%
    03:00 +24°C° 0 mm 1 mps 726 mmHg 93%
    04:00 +24°C° 0 mm 1 mps 726 mmHg 94%
    05:00 +24°C° 0 mm 1 mps 727 mmHg 96%
    06:00 +24°C° 0 mm 1 mps 727 mmHg 97%
    07:00 +26°C° 0 mm 1 mps 727 mmHg 87%
    08:00 +28°C° 0 mm 1 mps 728 mmHg 78%
    09:00 +30°C° 0 mm 2 mps 728 mmHg 68%
    10:00 +32°C° 0 mm 1 mps 728 mmHg 60%
    11:00 +34°C° 0 mm 1 mps 727 mmHg 52%
    12:00 +36°C° 0 mm 1 mps 727 mmHg 45%
    13:00 +36°C° 0 mm 1 mps 726 mmHg 43%
    14:00 +37°C° 0 mm 2 mps 725 mmHg 41%
    15:00 +37°C° 0 mm 2 mps 725 mmHg 39%
    16:00 +35°C° 0 mm 2 mps 725 mmHg 44%
    17:00 +32°C° 0 mm 1 mps 725 mmHg 48%
    18:00 +30°C° 0 mm 1 mps 725 mmHg 53%
    19:00 +30°C° 0 mm 1 mps 725 mmHg 55%
    20:00 +29°C° 0 mm 1 mps 725 mmHg 57%
    21:00 +28°C° 0 mm 1 mps 726 mmHg 59%
    22:00 +28°C° 0 mm 1 mps 726 mmHg 62%
    23:00 +27°C° 0 mm 1 mps 726 mmHg 65%

    Tomorrow, 20 October, Saturday

    Time Temperature Precipitation Wind Pressure Humidity
    00:00 +27°C° 0 mm 1 mps 726 mmHg 68%
    01:00 +27°C° 0 mm 1 mps 725 mmHg 71%
    02:00 +26°C° 0 mm 1 mps 725 mmHg 74%
    03:00 +26°C° 0 mm 1 mps 725 mmHg 77%
    04:00 +25°C° 0 mm 1 mps 725 mmHg 80%
    05:00 +25°C° 0 mm 1 mps 725 mmHg 83%
    06:00 +25°C° 0 mm 1 mps 726 mmHg 86%
    07:00 +27°C° 0 mm 1 mps 726 mmHg 79%
    08:00 +29°C° 0 mm 1 mps 727 mmHg 72%
    09:00 +31°C° 0 mm 1 mps 727 mmHg 64%
    10:00 +33°C° 0 mm 1 mps 727 mmHg 56%
    11:00 +35°C° 0 mm 1 mps 727 mmHg 47%
    12:00 +37°C° 0 mm 1 mps 726 mmHg 39%
    13:00 +37°C° 0 mm 1 mps 726 mmHg 36%
    14:00 +38°C° 0 mm 2 mps 725 mmHg 33%
    15:00 +38°C° 0 mm 2 mps 724 mmHg 30%
    16:00 +36°C° 0 mm 2 mps 724 mmHg 34%
    17:00 +34°C° 0 mm 2 mps 724 mmHg 38%
    18:00 +31°C° 0 mm 1 mps 724 mmHg 42%
    19:00 +30°C° 0 mm 1 mps 725 mmHg 44%
    20:00 +29°C° 0 mm 1 mps 725 mmHg 46%
    21:00 +28°C° 0 mm 1 mps 726 mmHg 47%
    22:00 +28°C° 0 mm 1 mps 726 mmHg 51%
    23:00 +27°C° 0 mm 2 mps 726 mmHg 55%

    Day after tomorrow, 21 October, Sunday

    Time Temperature Precipitation Wind Pressure Humidity
    00:00 +26°C° 0 mm 2 mps 725 mmHg 59%
    01:00 +26°C° 0 mm 2 mps 725 mmHg 67%
    02:00 +25°C° 0 mm 2 mps 725 mmHg 75%
    03:00 +25°C° 0 mm 1 mps 725 mmHg 83%
    04:00 +24°C° 0 mm 1 mps 725 mmHg 88%
    05:00 +24°C° 0 mm 1 mps 725 mmHg 92%
    06:00 +24°C° 0 mm 1 mps 725 mmHg 97%
    07:00 +26°C° 0 mm 1 mps 726 mmHg 87%
    08:00 +28°C° 0 mm 2 mps 726 mmHg 78%
    09:00 +30°C° 0 mm 2 mps 727 mmHg 69%
    10:00 +33°C° 0 mm 1 mps 726 mmHg 59%
    11:00 +36°C° 0 mm 1 mps 726 mmHg 49%
    12:00 +36°C° 0 mm 0 mps 726 mmHg 39%
    13:00 +39°C° 0 mm 1 mps 725 mmHg 37%
    14:00 +39°C° 0 mm 1 mps 724 mmHg 35%
    15:00 +37°C° 0 mm 1 mps 723 mmHg 32%
    16:00 +35°C° 0 mm 1 mps 724 mmHg 37%
    17:00 +33°C° 0 mm 1 mps 724 mmHg 42%
    18:00 +31°C° 0 mm 1 mps 724 mmHg 48%
    19:00 +30°C° 0 mm 1 mps 725 mmHg 51%
    20:00 +30°C° 0 mm 1 mps 726 mmHg 54%
    21:00 +29°C° 0 mm 2 mps 726 mmHg 57%
    22:00 +28°C° 0 mm 2 mps 726 mmHg 63%
    23:00 +28°C° 0 mm 2 mps 726 mmHg 69%

    22 October, Monday

    Time Temperature Precipitation Wind Pressure Humidity
    00:00 +27°C° 0 mm 2 mps 726 mmHg 75%
    01:00 +26°C° 0 mm 2 mps 726 mmHg 80%
    02:00 +26°C° 0 mm 2 mps 725 mmHg 85%
    03:00 +25°C° 0 mm 2 mps 725 mmHg 90%
    04:00 +25°C° 0 mm 2 mps 725 mmHg 92%
    05:00 +25°C° 0 mm 2 mps 725 mmHg 94%
    06:00 +24°C° 0 mm 2 mps 726 mmHg 97%
    07:00 +26°C° 0 mm 2 mps 726 mmHg 87%
    08:00 +28°C° 0 mm 2 mps 727 mmHg 78%
    09:00 +30°C° 0 mm 3 mps 727 mmHg 69%
    10:00 +32°C° 0 mm 2 mps 727 mmHg 61%
    11:00 +35°C° 0 mm 2 mps 726 mmHg 54%
    12:00 +36°C° 0 mm 1 mps 726 mmHg 46%
    13:00 +36°C° 0 mm 1 mps 725 mmHg 44%
    14:00 +37°C° 0 mm 1 mps 725 mmHg 41%
    15:00 +35°C° 0 mm 0 mps 724 mmHg 39%
    16:00 +35°C° 0 mm 1 mps 724 mmHg 44%
    17:00 +33°C° 0 mm 1 mps 724 mmHg 48%
    18:00 +31°C° 0 mm 2 mps 725 mmHg 53%
    19:00 +31°C° 0 mm 2 mps 725 mmHg 55%
    20:00 +30°C° 0 mm 2 mps 726 mmHg 58%
    21:00 +29°C° 0 mm 2 mps 727 mmHg 61%
    22:00 +29°C° 0 mm 2 mps 727 mmHg 66%
    23:00 +28°C° 0 mm 2 mps 726 mmHg 71%

    23 October, Tuesday

    Time Temperature Precipitation Wind Pressure Humidity
    00:00 +27°C° 0 mm 2 mps 726 mmHg 77%
    01:00 +27°C° 0 mm 2 mps 726 mmHg 81%
    02:00 +26°C° 0 mm 2 mps 726 mmHg 84%
    03:00 +26°C° 0 mm 2 mps 725 mmHg 88%
    04:00 +25°C° 0 mm 2 mps 726 mmHg 90%
    05:00 +25°C° 0 mm 2 mps 726 mmHg 93%
    06:00 +25°C° 0 mm 2 mps 726 mmHg 95%
    07:00 +27°C° 0 mm 2 mps 727 mmHg 85%
    08:00 +29°C° 0 mm 2 mps 727 mmHg 75%
    09:00 +31°C° 0 mm 2 mps 728 mmHg 66%
    10:00 +33°C° 0 mm 1 mps 727 mmHg 58%
    11:00 +36°C° 0 mm 1 mps 727 mmHg 50%
    12:00 +39°C° 0 mm 1 mps 726 mmHg 42%
    13:00 +39°C° 0 mm 1 mps 726 mmHg 39%
    14:00 +39°C° 0 mm 1 mps 725 mmHg 36%
    15:00 +39°C° 0 mm 1 mps 724 mmHg 33%
    16:00 +36°C° 0 mm 1 mps 725 mmHg 38%
    17:00 +34°C° 0 mm 1 mps 725 mmHg 43%
    18:00 +32°C° 0 mm 2 mps 725 mmHg 48%
    19:00 +31°C° 0 mm 2 mps 726 mmHg 52%
    20:00 +31°C° 0 mm 2 mps 726 mmHg 55%
    21:00 +30°C° 0 mm 2 mps 727 mmHg 59%
    22:00 +29°C° 0 mm 3 mps 727 mmHg 65%
    23:00 +28°C° 0 mm 3 mps 726 mmHg 71%

    24 October, Wednesday

    Time Temperature Precipitation Wind Pressure Humidity
    00:00 +28°C° 0 mm 3 mps 726 mmHg 77%
    01:00 +27°C° 0 mm 3 mps 726 mmHg 80%
    02:00 +27°C° 0 mm 2 mps 726 mmHg 84%
    03:00 +26°C° 0 mm 2 mps 725 mmHg 87%
    04:00 +26°C° 0 mm 2 mps 726 mmHg 88%
    05:00 +25°C° 0 mm 2 mps 726 mmHg 89%
    06:00 +25°C° 0 mm 2 mps 726 mmHg 90%
    07:00 +27°C° 0 mm 3 mps 727 mmHg 83%
    08:00 +29°C° 0 mm 3 mps 727 mmHg 75%
    09:00 +30°C° 0 mm 3 mps 728 mmHg 68%
    10:00 +33°C° 0 mm 3 mps 727 mmHg 62%
    11:00 +34°C° 0 mm 3 mps 727 mmHg 57%
    12:00 +36°C° 0 mm 3 mps 726 mmHg 51%
    13:00 +36°C° 0 mm 2 mps 726 mmHg 49%
    14:00 +37°C° 0 mm 2 mps 725 mmHg 47%
    15:00 +37°C° 0 mm 2 mps 724 mmHg 45%
    16:00 +35°C° 0 mm 2 mps 725 mmHg 52%
    17:00 +34°C° 0 mm 2 mps 725 mmHg 58%
    18:00 +31°C° 0 mm 3 mps 726 mmHg 65%
    19:00 +30°C° 0 mm 3 mps 726 mmHg 68%
    20:00 +29°C° 0 mm 3 mps 726 mmHg 72%
    21:00 +29°C° 0 mm 3 mps 727 mmHg 75%
    22:00 +28°C° 0 mm 3 mps 726 mmHg 78%
    23:00 +27°C° 0 mm 3 mps 726 mmHg 81%
    Show more